Time,TemperatureF,DewpointF,PressureIn,WindDirection,WindDirectionDegrees,WindSpeedMPH,WindSpeedGustMPH,Humidity,HourlyPrecipIn,Conditions,Clouds,dailyrainin,SolarRadiationWatts/m^2,SoftwareType,DateUTC
2013-11-11 00:00:00,49.8,29.3,30.23,NE,45,4.0,9.0,45,0.00,,CLR,0.00,0.00,VWS V15.00,2013-11-11 05:00:00,
2013-11-11 00:01:00,51.1,33.6,30.22,NNE,32,2.0,3.0,51,0.00,,CLR,0.00,0.00,VWS V14.01,2013-11-11 05:01:00,
2013-11-11 00:02:00,51.0,34.0,30.22,NNE,22,4.0,4.0,52,0.00,,CLR,0.00,0.00,VWS V14.01,2013-11-11 05:02:00,
2013-11-11 00:03:00,51.0,34.0,30.22,NNE,18,3.0,3.0,52,0.00,,CLR,0.00,0.00,VWS V14.01,2013-11-11 05:03:00,
2013-11-11 00:05:00,50.2,29.7,30.23,NE,45,6.0,10.0,45,0.00,,CLR,0.00,0.00,VWS V15.00,2013-11-11 05:05:00,
2013-11-11 00:08:00,50.8,33.3,30.22,NE,51,3.0,3.0,51,0.00,,CLR,0.00,0.00,VWS V14.01,2013-11-11 05:08:00,
2013-11-11 00:10:00,49.8,29.3,30.23,NNE,22,3.0,7.0,45,0.00,,CLR,0.00,0.00,VWS V15.00,2013-11-11 05:10:00,
2013-11-11 00:13:00,50.5,33.1,30.22,NNE,22,2.0,3.0,51,0.00,,CLR,0.00,0.00,VWS V14.01,2013-11-11 05:13:00,
2013-11-11 00:15:00,49.4,29.0,30.23,NE,45,3.0,5.0,45,0.00,,CLR,0.00,0.00,VWS V15.00,2013-11-11 05:15:00,
2013-11-11 00:18:00,50.1,32.2,30.22,NNE,32,2.0,3.0,50,0.00,,CLR,0.00,0.00,VWS V14.01,2013-11-11 05:18:00,
2013-11-11 00:20:00,49.1,29.2,30.23,NE,45,3.0,4.0,46,0.00,,CLR,0.00,0.00,VWS V15.00,2013-11-11 05:20:00,
2013-11-11 00:23:00,50.1,32.2,30.23,NNE,25,3.0,3.0,50,0.00,,CLR,0.00,0.00,VWS V14.01,2013-11-11 05:23:00,
2013-11-11 00:25:00,48.4,29.1,30.23,NNE,22,3.0,4.0,47,0.00,,CLR,0.00,0.00,VWS V15.00,2013-11-11 05:25:00,
2013-11-11 00:28:00,50.2,31.8,30.23,NNE,28,5.0,5.0,49,0.00,,CLR,0.00,0.00,VWS V14.01,2013-11-11 05:28:00,
2013-11-11 00:30:00,48.0,29.3,30.24,NE,45,3.0,5.0,48,0.00,,CLR,0.00,0.00,VWS V15.00,2013-11-11 05:30:00,
2013-11-11 00:34:00,50.3,31.4,30.22,NE,34,2.0,3.0,48,0.00,,CLR,0.00,0.00,VWS V14.01,2013-11-11 05:34:00,
2013-11-11 00:35:00,47.9,29.2,30.24,NE,45,4.0,5.0,48,0.00,,CLR,0.00,0.00,VWS V15.00,2013-11-11 05:35:00,
2013-11-11 00:39:00,50.3,30.9,30.23,NE,42,4.0,4.0,47,0.00,,CLR,0.00,0.00,VWS V14.01,2013-11-11 05:39:00,
2013-11-11 00:40:00,47.9,28.7,30.24,NNE,22,3.0,6.0,47,0.00,,CLR,0.00,0.00,VWS V15.00,2013-11-11 05:40:00,
2013-11-11 00:44:00,50.4,30.4,30.23,NNE,17,4.0,4.0,46,0.00,,CLR,0.00,0.00,VWS V14.01,2013-11-11 05:44:00,
2013-11-11 00:45:00,48.0,28.8,30.24,NE,45,4.0,6.0,47,0.00,,CLR,0.00,0.00,VWS V15.00,2013-11-11 05:45:00,
2013-11-11 00:49:00,50.1,30.7,30.23,NE,46,3.0,3.0,47,0.00,,CLR,0.00,0.00,VWS V14.01,2013-11-11 05:49:00,
2013-11-11 00:50:00,48.1,28.3,30.24,NE,45,4.0,6.0,46,0.00,,CLR,0.00,0.00,VWS V15.00,2013-11-11 05:50:00,
2013-11-11 00:54:00,49.8,29.9,30.23,NNE,26,3.0,3.0,46,0.00,,CLR,0.00,0.00,VWS V14.01,2013-11-11 05:54:00,
2013-11-11 00:55:00,47.8,28.0,30.24,NNE,22,3.0,5.0,46,0.00,,CLR,0.00,0.00,VWS V15.00,2013-11-11 05:55:00,
2013-11-11 00:59:00,49.7,29.2,30.23,NE,45,4.0,4.0,45,0.00,,CLR,0.00,0.00,VWS V14.01,2013-11-11 05:59:00,
2013-11-11 01:00:00,47.3,28.1,30.24,NE,45,2.0,4.0,47,0.00,,CLR,0.00,0.00,VWS V15.00,2013-11-11 06:00:00,
2013-11-11 01:04:00,50.2,29.7,30.23,NNE,31,3.0,3.0,45,0.00,,CLR,0.00,0.00,VWS V14.01,2013-11-11 06:04:00,
2013-11-11 01:05:00,47.0,28.3,30.24,NE,45,2.0,4.0,48,0.00,,CLR,0.00,0.00,VWS V15.00,2013-11-11 06:05:00,
2013-11-11 01:09:00,49.8,29.3,30.23,NNE,33,3.0,3.0,45,0.00,,CLR,0.00,0.00,VWS V14.01,2013-11-11 06:09:00,
2013-11-11 01:10:00,46.3,28.2,30.24,NNE,22,2.0,4.0,49,0.00,,CLR,0.00,0.00,VWS V15.00,2013-11-11 06:10:00,
2013-11-11 01:14:00,49.4,29.0,30.23,NE,46,4.0,4.0,45,0.00,,CLR,0.00,0.00,VWS V14.01,2013-11-11 06:14:00,
2013-11-11 01:15:00,46.0,27.9,30.25,NE,45,2.0,4.0,49,0.00,,CLR,0.00,0.00,VWS V15.00,2013-11-11 06:15:00,
2013-11-11 01:19:00,49.1,29.2,30.23,NE,44,3.0,3.0,46,0.00,,CLR,0.00,0.00,VWS V14.01,2013-11-11 06:19:00,
2013-11-11 01:20:00,45.9,27.8,30.25,NE,45,3.0,5.0,49,0.00,,CLR,0.00,0.00,VWS V15.00,2013-11-11 06:20:00,
2013-11-11 01:24:00,48.5,29.2,30.23,NNE,32,2.0,3.0,47,0.00,,CLR,0.00,0.00,VWS V14.01,2013-11-11 06:24:00,
2013-11-11 01:25:00,45.8,27.7,30.25,NNE,22,3.0,6.0,49,0.00,,CLR,0.00,0.00,VWS V15.00,2013-11-11 06:25:00,
2013-11-11 01:29:00,48.1,29.4,30.24,NNE,32,3.0,3.0,48,0.00,,CLR,0.00,0.00,VWS V14.01,2013-11-11 06:29:00,
2013-11-11 01:30:00,46.1,28.0,30.25,NE,45,4.0,6.0,49,0.00,,CLR,0.00,0.00,VWS V15.00,2013-11-11 06:30:00,
2013-11-11 01:34:00,47.9,29.2,30.24,NE,38,5.0,5.0,48,0.00,,CLR,0.00,0.00,VWS V14.01,2013-11-11 06:34:00,
2013-11-11 01:35:00,46.3,27.7,30.25,NE,45,4.0,6.0,48,0.00,,CLR,0.00,0.00,VWS V15.00,2013-11-11 06:35:00,
2013-11-11 01:40:00,47.9,28.7,30.24,NE,39,2.0,3.0,47,0.00,,CLR,0.00,0.00,VWS V14.01,2013-11-11 06:40:00,
2013-11-11 01:45:00,48.0,28.8,30.24,NE,50,3.0,3.0,47,0.00,,CLR,0.00,0.00,VWS V14.01,2013-11-11 06:45:00,
2013-11-11 01:50:00,48.1,28.3,30.24,ENE,68,3.0,3.0,46,0.00,,CLR,0.00,0.00,VWS V14.01,2013-11-11 06:50:00,
2013-11-11 01:55:00,47.8,28.0,30.24,NE,39,4.0,4.0,46,0.00,,CLR,0.00,0.00,VWS V14.01,2013-11-11 06:55:00,
2013-11-11 02:00:00,47.4,28.2,30.24,NNE,32,2.0,3.0,47,0.00,,CLR,0.00,0.00,VWS V14.01,2013-11-11 07:00:00,
2013-11-11 02:05:00,47.0,28.3,30.24,NNE,24,3.0,3.0,48,0.00,,CLR,0.00,0.00,VWS V14.01,2013-11-11 07:05:00,
2013-11-11 02:10:00,46.3,28.2,30.25,NNE,15,2.0,3.0,49,0.00,,CLR,0.00,0.00,VWS V14.01,2013-11-11 07:10:00,
2013-11-11 02:15:00,46.0,27.9,30.25,NE,49,4.0,4.0,49,0.00,,CLR,0.00,0.00,VWS V14.01,2013-11-11 07:15:00,
2013-11-11 02:20:00,45.9,27.8,30.24,NNE,32,2.0,3.0,49,0.00,,CLR,0.00,0.00,VWS V14.01,2013-11-11 07:20:00,
2013-11-11 02:25:00,45.8,27.7,30.25,NNE,30,5.0,5.0,49,0.00,,CLR,0.00,0.00,VWS V14.01,2013-11-11 07:25:00,
2013-11-11 02:30:00,46.1,27.5,30.25,NE,46,4.0,4.0,48,0.00,,CLR,0.00,0.00,VWS V14.01,2013-11-11 07:30:00,
2013-11-11 02:35:00,46.3,27.7,30.25,NNE,31,3.0,3.0,48,0.00,,CLR,0.00,0.00,VWS V14.01,2013-11-11 07:35:00,
2013-11-11 02:40:00,46.2,28.1,30.25,NE,51,4.0,4.0,49,0.00,,CLR,0.00,0.00,VWS V14.01,2013-11-11 07:40:00,
2013-11-11 02:45:00,45.6,27.6,30.27,NE,45,4.0,9.0,49,0.00,,CLR,0.00,0.00,VWS V15.00,2013-11-11 07:45:00,
2013-11-11 02:46:00,46.4,27.8,30.25,NE,49,2.0,3.0,48,0.00,,CLR,0.00,0.00,VWS V14.01,2013-11-11 07:46:00,
2013-11-11 02:50:00,45.3,27.3,30.26,NE,45,3.0,5.0,49,0.00,,CLR,0.00,0.00,VWS V15.00,2013-11-11 07:50:00,
2013-11-11 02:51:00,46.3,27.7,30.25,NE,43,3.0,3.0,48,0.00,,CLR,0.00,0.00,VWS V14.01,2013-11-11 07:51:00,
2013-11-11 02:55:00,45.1,27.6,30.26,NE,45,4.0,10.0,50,0.00,,CLR,0.00,0.00,VWS V15.00,2013-11-11 07:55:00,
2013-11-11 02:56:00,46.0,27.4,30.25,ENE,68,4.0,4.0,48,0.00,,CLR,0.00,0.00,VWS V14.01,2013-11-11 07:56:00,
2013-11-11 03:00:00,45.1,27.1,30.27,ENE,68,4.0,9.0,49,0.00,,CLR,0.00,0.00,VWS V15.00,2013-11-11 08:00:00,
2013-11-11 03:01:00,45.8,27.2,30.25,NE,54,3.0,3.0,48,0.00,,CLR,0.00,0.00,VWS V14.01,2013-11-11 08:01:00,
2013-11-11 03:05:00,45.0,27.5,30.26,NE,45,3.0,6.0,50,0.00,,CLR,0.00,0.00,VWS V15.00,2013-11-11 08:05:00,
2013-11-11 03:06:00,45.7,27.1,30.25,NNE,22,3.0,3.0,48,0.00,,CLR,0.00,0.00,VWS V14.01,2013-11-11 08:06:00,
2013-11-11 03:10:00,44.8,27.3,30.26,NE,45,3.0,6.0,50,0.00,,CLR,0.00,0.00,VWS V15.00,2013-11-11 08:10:00,
2013-11-11 03:11:00,45.5,27.5,30.26,ENE,75,3.0,3.0,49,0.00,,CLR,0.00,0.00,VWS V14.01,2013-11-11 08:11:00,
2013-11-11 03:15:00,44.6,27.1,30.27,NE,45,3.0,6.0,50,0.00,,CLR,0.00,0.00,VWS V15.00,2013-11-11 08:15:00,
2013-11-11 03:16:00,45.5,27.5,30.26,NE,40,3.0,3.0,49,0.00,,CLR,0.00,0.00,VWS V14.01,2013-11-11 08:16:00,
2013-11-11 03:20:00,44.4,27.4,30.27,NE,45,3.0,5.0,51,0.00,,CLR,0.00,0.00,VWS V15.00,2013-11-11 08:20:00,
2013-11-11 03:21:00,45.5,27.5,30.26,NNE,26,4.0,4.0,49,0.00,,CLR,0.00,0.00,VWS V14.01,2013-11-11 08:21:00,
2013-11-11 03:25:00,44.1,27.6,30.27,ENE,68,3.0,5.0,52,0.00,,CLR,0.00,0.00,VWS V15.00,2013-11-11 08:25:00,
2013-11-11 03:26:00,45.6,27.1,30.26,NE,38,2.0,3.0,48,0.00,,CLR,0.00,0.00,VWS V14.01,2013-11-11 08:26:00,
2013-11-11 03:30:00,43.9,27.4,30.27,NE,45,2.0,4.0,52,0.00,,CLR,0.00,0.00,VWS V15.00,2013-11-11 08:30:00,
2013-11-11 03:31:00,45.6,27.1,30.26,NNE,14,3.0,3.0,48,0.00,,CLR,0.00,0.00,VWS V14.01,2013-11-11 08:31:00,
2013-11-11 03:35:00,43.6,27.1,30.28,ENE,68,3.0,6.0,52,0.00,,CLR,0.00,0.00,VWS V15.00,2013-11-11 08:35:00,
2013-11-11 03:36:00,45.5,27.5,30.26,NE,36,3.0,3.0,49,0.00,,CLR,0.00,0.00,VWS V14.01,2013-11-11 08:36:00,
2013-11-11 03:40:00,43.4,27.0,30.28,ENE,68,4.0,8.0,52,0.00,,CLR,0.00,0.00,VWS V15.00,2013-11-11 08:40:00,
2013-11-11 03:41:00,45.5,27.5,30.26,ENE,59,5.0,5.0,49,0.00,,CLR,0.00,0.00,VWS V14.01,2013-11-11 08:41:00,
2013-11-11 03:45:00,43.5,27.5,30.28,NE,45,4.0,6.0,53,0.00,,CLR,0.00,0.00,VWS V15.00,2013-11-11 08:45:00,
2013-11-11 03:47:00,45.5,27.5,30.26,NE,53,2.0,3.0,49,0.00,,CLR,0.00,0.00,VWS V14.01,2013-11-11 08:47:00,
2013-11-11 03:50:00,43.6,27.1,30.28,ENE,68,4.0,8.0,52,0.00,,CLR,0.00,0.00,VWS V15.00,2013-11-11 08:50:00,
2013-11-11 03:52:00,45.1,27.1,30.26,NE,44,3.0,3.0,49,0.00,,CLR,0.00,0.00,VWS V14.01,2013-11-11 08:52:00,
2013-11-11 03:55:00,43.5,27.5,30.28,NE,45,3.0,5.0,53,0.00,,CLR,0.00,0.00,VWS V15.00,2013-11-11 08:55:00,
2013-11-11 03:57:00,45.1,27.6,30.27,ENE,78,7.0,7.0,50,0.00,,CLR,0.00,0.00,VWS V14.01,2013-11-11 08:57:00,
2013-11-11 04:00:00,43.4,27.4,30.29,ENE,68,3.0,8.0,53,0.00,,CLR,0.00,0.00,VWS V15.00,2013-11-11 09:00:00,
2013-11-11 04:02:00,45.1,27.6,30.26,NE,38,3.0,3.0,50,0.00,,CLR,0.00,0.00,VWS V14.01,2013-11-11 09:02:00,
2013-11-11 04:05:00,43.1,27.1,30.29,NE,45,3.0,4.0,53,0.00,,CLR,0.00,0.00,VWS V15.00,2013-11-11 09:05:00,
2013-11-11 04:07:00,44.9,27.4,30.26,ENE,66,3.0,3.0,50,0.00,,CLR,0.00,0.00,VWS V14.01,2013-11-11 09:07:00,
2013-11-11 04:10:00,43.0,27.5,30.29,NE,45,3.0,6.0,54,0.00,,CLR,0.00,0.00,VWS V15.00,2013-11-11 09:10:00,
2013-11-11 04:12:00,44.7,27.2,30.27,ENE,68,6.0,6.0,50,0.00,,CLR,0.00,0.00,VWS V14.01,2013-11-11 09:12:00,
2013-11-11 04:15:00,43.0,27.5,30.30,NE,45,3.0,5.0,54,0.00,,CLR,0.00,0.00,VWS V15.00,2013-11-11 09:15:00,
2013-11-11 04:17:00,44.5,27.5,30.27,NE,55,4.0,4.0,51,0.00,,CLR,0.00,0.00,VWS V14.01,2013-11-11 09:17:00,
2013-11-11 04:20:00,42.7,27.2,30.30,NE,45,2.0,3.0,54,0.00,,CLR,0.00,0.00,VWS V15.00,2013-11-11 09:20:00,
2013-11-11 04:22:00,44.2,27.2,30.28,ENE,68,3.0,3.0,51,0.00,,CLR,0.00,0.00,VWS V14.01,2013-11-11 09:22:00,
2013-11-11 04:25:00,42.5,27.5,30.30,NE,45,2.0,4.0,55,0.00,,CLR,0.00,0.00,VWS V15.00,2013-11-11 09:25:00,
2013-11-11 04:27:00,44.0,27.0,30.27,NE,53,2.0,3.0,51,0.00,,CLR,0.00,0.00,VWS V14.01,2013-11-11 09:27:00,
2013-11-11 04:30:00,42.2,27.6,30.29,NE,45,2.0,4.0,56,0.00,,CLR,0.00,0.00,VWS V15.00,2013-11-11 09:30:00,
2013-11-11 04:32:00,43.7,27.2,30.28,ENE,65,2.0,3.0,52,0.00,,CLR,0.00,0.00,VWS V14.01,2013-11-11 09:32:00,
2013-11-11 04:35:00,42.1,27.5,30.29,NE,45,3.0,6.0,56,0.00,,CLR,0.00,0.00,VWS V15.00,2013-11-11 09:35:00,
2013-11-11 04:37:00,43.4,27.0,30.28,ENE,65,3.0,3.0,52,0.00,,CLR,0.00,0.00,VWS V14.01,2013-11-11 09:37:00,
2013-11-11 04:40:00,42.2,27.6,30.30,NE,45,3.0,5.0,56,0.00,,CLR,0.00,0.00,VWS V15.00,2013-11-11 09:40:00,
2013-11-11 04:42:00,43.5,27.5,30.28,ENE,62,5.0,5.0,53,0.00,,CLR,0.00,0.00,VWS V14.01,2013-11-11 09:42:00,
2013-11-11 04:45:00,42.3,27.7,30.30,NE,45,3.0,5.0,56,0.00,,CLR,0.00,0.00,VWS V15.00,2013-11-11 09:45:00,
2013-11-11 04:47:00,43.6,27.6,30.28,ENE,69,3.0,3.0,53,0.00,,CLR,0.00,0.00,VWS V14.01,2013-11-11 09:47:00,
2013-11-11 04:50:00,42.1,28.0,30.30,NE,45,3.0,4.0,57,0.00,,CLR,0.00,0.00,VWS V15.00,2013-11-11 09:50:00,
2013-11-11 04:52:00,43.5,27.5,30.28,NNE,26,4.0,4.0,53,0.00,,CLR,0.00,0.00,VWS V14.01,2013-11-11 09:52:00,
2013-11-11 04:55:00,41.8,27.7,30.30,NE,45,2.0,4.0,57,0.00,,CLR,0.00,0.00,VWS V15.00,2013-11-11 09:55:00,
2013-11-11 04:57:00,43.5,27.5,30.29,ENE,69,3.0,3.0,53,0.00,,CLR,0.00,0.00,VWS V14.01,2013-11-11 09:57:00,
2013-11-11 05:00:00,41.6,27.9,30.30,NE,45,2.0,4.0,58,0.00,,CLR,0.00,0.00,VWS V15.00,2013-11-11 10:00:00,
2013-11-11 05:02:00,43.3,27.3,30.29,NE,46,3.0,3.0,53,0.00,,CLR,0.00,0.00,VWS V14.01,2013-11-11 10:02:00,
2013-11-11 05:05:00,41.5,27.8,30.29,NE,45,3.0,4.0,58,0.00,,CLR,0.00,0.00,VWS V15.00,2013-11-11 10:05:00,
2013-11-11 05:07:00,43.0,27.5,30.29,NE,49,2.0,3.0,54,0.00,,CLR,0.00,0.00,VWS V14.01,2013-11-11 10:07:00,
2013-11-11 05:10:00,41.6,27.9,30.30,NE,45,4.0,9.0,58,0.00,,CLR,0.00,0.00,VWS V15.00,2013-11-11 10:10:00,
2013-11-11 05:12:00,43.0,27.5,30.30,NE,46,3.0,3.0,54,0.00,,CLR,0.00,0.00,VWS V14.01,2013-11-11 10:12:00,
2013-11-11 05:15:00,41.8,28.1,30.30,NE,45,3.0,7.0,58,0.00,,CLR,0.00,0.00,VWS V15.00,2013-11-11 10:15:00,
2013-11-11 05:18:00,42.8,27.3,30.30,NE,49,2.0,3.0,54,0.00,,CLR,0.00,0.00,VWS V14.01,2013-11-11 10:18:00,
2013-11-11 05:20:00,41.9,27.8,30.30,NE,45,3.0,4.0,57,0.00,,CLR,0.00,0.00,VWS V15.00,2013-11-11 10:20:00,
2013-11-11 05:23:00,42.6,27.6,30.30,NE,54,2.0,3.0,55,0.00,,CLR,0.00,0.00,VWS V14.01,2013-11-11 10:23:00,
2013-11-11 05:25:00,41.9,27.8,30.30,NE,45,3.0,4.0,57,0.00,,CLR,0.00,0.00,VWS V15.00,2013-11-11 10:25:00,
2013-11-11 05:28:00,42.2,27.6,30.30,NE,34,2.0,3.0,56,0.00,,CLR,0.00,0.00,VWS V14.01,2013-11-11 10:28:00,
2013-11-11 05:30:00,42.1,28.0,30.30,NE,45,4.0,6.0,57,0.00,,CLR,0.00,0.00,VWS V15.00,2013-11-11 10:30:00,
2013-11-11 05:33:00,42.1,27.5,30.29,NE,44,3.0,3.0,56,0.00,,CLR,0.00,0.00,VWS V14.01,2013-11-11 10:33:00,
2013-11-11 05:35:00,42.1,28.0,30.31,NE,45,4.0,8.0,57,0.00,,CLR,0.00,0.00,VWS V15.00,2013-11-11 10:35:00,
2013-11-11 05:38:00,42.1,28.0,30.29,NE,39,2.0,3.0,57,0.00,,CLR,0.00,0.00,VWS V14.01,2013-11-11 10:38:00,
2013-11-11 05:40:00,42.1,27.5,30.31,NE,45,3.0,5.0,56,0.00,,CLR,0.00,0.00,VWS V15.00,2013-11-11 10:40:00,
2013-11-11 05:43:00,42.3,27.7,30.29,ENE,67,4.0,4.0,56,0.00,,CLR,0.00,0.00,VWS V14.01,2013-11-11 10:43:00,
2013-11-11 05:45:00,42.0,27.9,30.31,NE,45,3.0,6.0,57,0.00,,CLR,0.00,0.00,VWS V15.00,2013-11-11 10:45:00,
2013-11-11 05:48:00,42.2,28.1,30.30,NE,49,2.0,3.0,57,0.00,,CLR,0.00,0.00,VWS V14.01,2013-11-11 10:48:00,
2013-11-11 05:50:00,41.9,27.8,30.31,NE,45,3.0,5.0,57,0.00,,CLR,0.00,0.00,VWS V15.00,2013-11-11 10:50:00,
2013-11-11 05:53:00,41.9,27.8,30.30,NE,48,3.0,3.0,57,0.00,,CLR,0.00,0.00,VWS V14.01,2013-11-11 10:53:00,
2013-11-11 05:55:00,41.8,27.7,30.31,NE,45,3.0,5.0,57,0.00,,CLR,0.00,3.00,VWS V15.00,2013-11-11 10:55:00,
2013-11-11 05:58:00,41.7,28.0,30.30,NE,45,2.0,3.0,58,0.00,,CLR,0.00,0.00,VWS V14.01,2013-11-11 10:58:00,
2013-11-11 06:00:00,41.7,27.6,30.31,NE,45,3.0,8.0,57,0.00,,CLR,0.00,6.00,VWS V15.00,2013-11-11 11:00:00,
2013-11-11 06:03:00,41.5,27.8,30.30,NNE,24,3.0,3.0,58,0.00,,CLR,0.00,0.00,VWS V14.01,2013-11-11 11:03:00,
2013-11-11 06:05:00,41.6,27.5,30.31,NE,45,3.0,5.0,57,0.00,,CLR,0.00,10.00,VWS V15.00,2013-11-11 11:05:00,
2013-11-11 06:08:00,41.5,27.8,30.30,NNE,27,2.0,3.0,58,0.00,,CLR,0.00,0.00,VWS V14.01,2013-11-11 11:08:00,
2013-11-11 06:10:00,41.6,27.9,30.32,NE,45,3.0,5.0,58,0.00,,CLR,0.00,12.00,VWS V15.00,2013-11-11 11:10:00,
2013-11-11 06:13:00,41.8,28.1,30.30,NE,36,4.0,4.0,58,0.00,,CLR,0.00,0.00,VWS V14.01,2013-11-11 11:13:00,
2013-11-11 06:15:00,41.8,27.7,30.32,ENE,68,4.0,7.0,57,0.00,,CLR,0.00,16.00,VWS V15.00,2013-11-11 11:15:00,
2013-11-11 06:18:00,41.8,28.1,30.30,NE,37,3.0,3.0,58,0.00,,CLR,0.00,0.00,VWS V14.01,2013-11-11 11:18:00,
2013-11-11 06:20:00,42.1,27.5,30.32,ENE,68,3.0,7.0,56,0.00,,CLR,0.00,21.00,VWS V15.00,2013-11-11 11:20:00,
2013-11-11 06:23:00,41.9,27.8,30.30,ENE,75,3.0,3.0,57,0.00,,CLR,0.00,0.00,VWS V14.01,2013-11-11 11:23:00,
2013-11-11 06:25:00,42.6,28.0,30.32,ENE,68,4.0,8.0,56,0.00,,CLR,0.00,31.00,VWS V15.00,2013-11-11 11:25:00,
2013-11-11 06:28:00,42.1,28.0,30.30,NE,42,5.0,5.0,57,0.00,,CLR,0.00,0.00,VWS V14.01,2013-11-11 11:28:00,
2013-11-11 06:30:00,42.9,28.3,30.32,ENE,68,4.0,7.0,56,0.00,,CLR,0.00,39.00,VWS V15.00,2013-11-11 11:30:00,
2013-11-11 06:33:00,42.1,28.0,30.31,ENE,65,5.0,5.0,57,0.00,,CLR,0.00,0.00,VWS V14.01,2013-11-11 11:33:00,
2013-11-11 06:35:00,43.3,28.2,30.33,ENE,68,4.0,8.0,55,0.00,,CLR,0.00,57.00,VWS V15.00,2013-11-11 11:35:00,
2013-11-11 06:38:00,42.1,28.0,30.31,NE,42,2.0,3.0,57,0.00,,CLR,0.00,0.00,VWS V14.01,2013-11-11 11:38:00,
2013-11-11 06:40:00,43.7,28.2,30.33,NE,45,4.0,6.0,54,0.00,,CLR,0.00,74.00,VWS V15.00,2013-11-11 11:40:00,
2013-11-11 06:44:00,42.0,27.9,30.31,NE,51,3.0,3.0,57,0.00,,CLR,0.00,0.00,VWS V14.01,2013-11-11 11:44:00,
2013-11-11 06:45:00,44.1,28.1,30.33,ENE,68,5.0,11.0,53,0.00,,CLR,0.00,91.00,VWS V15.00,2013-11-11 11:45:00,
2013-11-11 06:49:00,42.0,27.9,30.31,NE,43,3.0,3.0,57,0.00,,CLR,0.00,0.00,VWS V14.01,2013-11-11 11:49:00,
2013-11-11 06:50:00,44.5,28.0,30.33,ENE,68,5.0,10.0,52,0.00,,CLR,0.00,108.00,VWS V15.00,2013-11-11 11:50:00,
2013-11-11 06:54:00,41.8,27.7,30.31,NE,43,2.0,3.0,57,0.00,,CLR,0.00,5.00,VWS V14.01,2013-11-11 11:54:00,
2013-11-11 06:55:00,44.9,27.9,30.33,ENE,68,7.0,11.0,51,0.00,,CLR,0.00,125.00,VWS V15.00,2013-11-11 11:55:00,
2013-11-11 06:59:00,41.8,27.7,30.31,ENE,63,1.0,3.0,57,0.00,,CLR,0.00,7.00,VWS V14.01,2013-11-11 11:59:00,
2013-11-11 07:00:00,45.2,28.2,30.33,ENE,68,7.0,12.0,51,0.00,,CLR,0.00,144.00,VWS V15.00,2013-11-11 12:00:00,
2013-11-11 07:04:00,41.6,27.5,30.31,NE,48,4.0,4.0,57,0.00,,CLR,0.00,11.00,VWS V14.01,2013-11-11 12:04:00,
2013-11-11 07:05:00,45.6,28.5,30.33,ENE,68,7.0,11.0,51,0.00,,CLR,0.00,164.00,VWS V15.00,2013-11-11 12:05:00,
2013-11-11 07:09:00,41.6,27.9,30.32,NE,42,3.0,3.0,58,0.00,,CLR,0.00,12.00,VWS V14.01,2013-11-11 12:09:00,
2013-11-11 07:10:00,45.8,28.2,30.33,ENE,68,8.0,12.0,50,0.00,,CLR,0.00,184.00,VWS V15.00,2013-11-11 12:10:00,
2013-11-11 07:14:00,41.7,27.6,30.32,ENE,59,4.0,4.0,57,0.00,,CLR,0.00,18.00,VWS V14.01,2013-11-11 12:14:00,
2013-11-11 07:15:00,46.1,28.5,30.33,ENE,68,8.0,14.0,50,0.00,,CLR,0.00,204.00,VWS V15.00,2013-11-11 12:15:00,
2013-11-11 07:19:00,42.1,28.0,30.32,ENE,67,4.0,4.0,57,0.00,,CLR,0.00,23.00,VWS V14.01,2013-11-11 12:19:00,
2013-11-11 07:20:00,46.3,28.2,30.33,ENE,68,8.0,12.0,49,0.00,,CLR,0.00,225.00,VWS V15.00,2013-11-11 12:20:00,
2013-11-11 07:24:00,42.5,27.9,30.32,ENE,74,4.0,4.0,56,0.00,,CLR,0.00,33.00,VWS V14.01,2013-11-11 12:24:00,
2013-11-11 07:25:00,46.8,28.7,30.34,ENE,68,6.0,10.0,49,0.00,,CLR,0.00,241.00,VWS V15.00,2013-11-11 12:25:00,
2013-11-11 07:29:00,42.9,28.3,30.32,East,80,2.0,3.0,56,0.00,,CLR,0.00,44.00,VWS V14.01,2013-11-11 12:29:00,
2013-11-11 07:30:00,47.2,29.0,30.34,ENE,68,6.0,12.0,49,0.00,,CLR,0.00,257.00,VWS V15.00,2013-11-11 12:30:00,
2013-11-11 07:34:00,43.3,28.2,30.33,NE,55,4.0,4.0,55,0.00,,CLR,0.00,62.00,VWS V14.01,2013-11-11 12:34:00,
2013-11-11 07:35:00,47.6,28.9,30.34,ENE,68,6.0,14.0,48,0.00,,CLR,0.00,274.00,VWS V15.00,2013-11-11 12:35:00,
2013-11-11 07:39:00,43.7,28.2,30.33,NE,50,4.0,4.0,54,0.00,,CLR,0.00,79.00,VWS V14.01,2013-11-11 12:39:00,
2013-11-11 07:40:00,48.0,28.8,30.34,ENE,68,6.0,10.0,47,0.00,,CLR,0.00,288.00,VWS V15.00,2013-11-11 12:40:00,
2013-11-11 07:44:00,44.1,28.1,30.33,ENE,57,9.0,9.0,53,0.00,,CLR,0.00,95.00,VWS V14.01,2013-11-11 12:44:00,
2013-11-11 07:45:00,48.3,29.0,30.34,ENE,68,8.0,12.0,47,0.00,,CLR,0.00,304.00,VWS V15.00,2013-11-11 12:45:00,
2013-11-11 07:50:00,44.5,28.0,30.33,ENE,68,8.0,8.0,52,0.00,,CLR,0.00,114.00,VWS V14.01,2013-11-11 12:50:00,
2013-11-11 07:55:00,44.9,27.9,30.33,ENE,61,5.0,5.0,51,0.00,,CLR,0.00,134.00,VWS V14.01,2013-11-11 12:55:00,
2013-11-11 08:00:00,45.2,28.2,30.33,ENE,61,6.0,6.0,51,0.00,,CLR,0.00,151.00,VWS V14.01,2013-11-11 13:00:00,
2013-11-11 08:05:00,45.6,28.5,30.33,NE,53,4.0,4.0,51,0.00,,CLR,0.00,172.00,VWS V14.01,2013-11-11 13:05:00,
2013-11-11 08:10:00,45.8,28.2,30.33,NE,55,7.0,7.0,50,0.00,,CLR,0.00,192.00,VWS V14.01,2013-11-11 13:10:00,
2013-11-11 08:15:00,46.1,28.5,30.33,ENE,76,8.0,8.0,50,0.00,,CLR,0.00,213.00,VWS V14.01,2013-11-11 13:15:00,
2013-11-11 08:20:00,46.3,28.2,30.33,ENE,66,6.0,6.0,49,0.00,,CLR,0.00,232.00,VWS V14.01,2013-11-11 13:20:00,
2013-11-11 08:25:00,46.8,28.7,30.34,ENE,65,3.0,3.0,49,0.00,,CLR,0.00,250.00,VWS V14.01,2013-11-11 13:25:00,
2013-11-11 08:30:00,47.2,29.0,30.34,East,94,10.0,10.0,49,0.00,,CLR,0.00,265.00,VWS V14.01,2013-11-11 13:30:00,
2013-11-11 08:35:00,47.6,28.9,30.34,East,88,4.0,4.0,48,0.00,,CLR,0.00,285.00,VWS V14.01,2013-11-11 13:35:00,
2013-11-11 08:40:00,48.0,28.8,30.34,NE,56,7.0,7.0,47,0.00,,CLR,0.00,297.00,VWS V14.01,2013-11-11 13:40:00,
2013-11-11 08:45:00,48.3,28.5,30.34,East,80,3.0,3.0,46,0.00,,CLR,0.00,313.00,VWS V14.01,2013-11-11 13:45:00,
2013-11-11 08:50:00,48.5,28.7,30.35,East,87,9.0,9.0,46,0.00,,CLR,0.00,325.00,VWS V14.01,2013-11-11 13:50:00,
2013-11-11 08:55:00,48.5,28.7,30.35,ENE,67,4.0,4.0,46,0.00,,CLR,0.00,339.00,VWS V14.01,2013-11-11 13:55:00,
2013-11-11 09:00:00,48.8,28.4,30.35,ENE,68,12.0,12.0,45,0.00,,CLR,0.00,355.00,VWS V14.01,2013-11-11 14:00:00,
2013-11-11 09:05:00,51.7,29.9,30.35,ENE,68,5.0,11.0,43,0.00,,CLR,0.00,513.00,VWS V15.00,2013-11-11 14:05:00,
2013-11-11 09:06:00,49.2,29.9,30.35,ENE,60,6.0,6.0,47,0.00,,CLR,0.00,371.00,VWS V14.01,2013-11-11 14:06:00,
2013-11-11 09:10:00,51.8,29.5,30.35,ESE,112,8.0,12.0,42,0.00,,CLR,0.00,522.00,VWS V15.00,2013-11-11 14:10:00,
2013-11-11 09:11:00,49.4,29.0,30.34,ENE,57,7.0,7.0,45,0.00,,CLR,0.00,385.00,VWS V14.01,2013-11-11 14:11:00,
2013-11-11 09:15:00,51.9,29.5,30.35,ESE,112,6.0,11.0,42,0.00,,CLR,0.00,531.00,VWS V15.00,2013-11-11 14:15:00,
2013-11-11 09:16:00,49.5,29.6,30.34,ESE,105,7.0,7.0,46,0.00,,CLR,0.00,399.00,VWS V14.01,2013-11-11 14:16:00,
2013-11-11 09:20:00,51.8,29.5,30.35,ENE,68,6.0,12.0,42,0.00,,CLR,0.00,544.00,VWS V15.00,2013-11-11 14:20:00,
2013-11-11 09:21:00,49.8,29.3,30.35,East,93,16.0,16.0,45,0.00,,CLR,0.00,413.00,VWS V14.01,2013-11-11 14:21:00,
2013-11-11 09:25:00,52.3,29.3,30.35,East,90,8.0,12.0,41,0.00,,CLR,0.00,552.00,VWS V15.00,2013-11-11 14:25:00,
2013-11-11 09:26:00,50.0,29.5,30.34,East,90,9.0,9.0,45,0.00,,CLR,0.00,427.00,VWS V14.01,2013-11-11 14:26:00,
2013-11-11 09:30:00,52.1,29.7,30.35,East,90,7.0,10.0,42,0.00,,CLR,0.00,559.00,VWS V15.00,2013-11-11 14:30:00,
2013-11-11 09:31:00,50.1,29.6,30.34,ESE,104,4.0,4.0,45,0.00,,CLR,0.00,439.00,VWS V14.01,2013-11-11 14:31:00,
2013-11-11 09:35:00,52.0,29.6,30.34,East,90,6.0,11.0,42,0.00,,CLR,0.00,571.00,VWS V15.00,2013-11-11 14:35:00,
2013-11-11 09:36:00,50.3,29.2,30.34,East,96,8.0,8.0,44,0.00,,CLR,0.00,452.00,VWS V14.01,2013-11-11 14:36:00,
2013-11-11 09:40:00,52.2,29.8,30.34,East,90,6.0,10.0,42,0.00,,CLR,0.00,576.00,VWS V15.00,2013-11-11 14:40:00,
2013-11-11 09:41:00,50.0,30.0,30.34,East,84,9.0,9.0,46,0.00,,CLR,0.00,464.00,VWS V14.01,2013-11-11 14:41:00,
2013-11-11 09:45:00,52.6,29.6,30.34,ENE,68,5.0,8.0,41,0.00,,CLR,0.00,585.00,VWS V15.00,2013-11-11 14:45:00,
2013-11-11 09:46:00,50.1,29.6,30.35,East,86,4.0,4.0,45,0.00,,CLR,0.00,476.00,VWS V14.01,2013-11-11 14:46:00,
2013-11-11 09:50:00,53.0,30.0,30.34,East,90,5.0,10.0,41,0.00,,CLR,0.00,590.00,VWS V15.00,2013-11-11 14:50:00,
2013-11-11 09:51:00,50.5,30.0,30.35,ESE,108,9.0,9.0,45,0.00,,CLR,0.00,487.00,VWS V14.01,2013-11-11 14:51:00,
2013-11-11 09:55:00,53.2,29.5,30.34,East,90,3.0,7.0,40,0.00,,CLR,0.00,598.00,VWS V15.00,2013-11-11 14:55:00,
2013-11-11 09:57:00,50.8,30.2,30.35,ENE,78,7.0,7.0,45,0.00,,CLR,0.00,510.00,VWS V14.01,2013-11-11 14:57:00,
2013-11-11 10:00:00,53.4,29.7,30.34,ENE,68,6.0,11.0,40,0.00,,CLR,0.00,604.00,VWS V15.00,2013-11-11 15:00:00,
2013-11-11 10:02:00,51.4,30.8,30.35,NE,55,7.0,7.0,45,0.00,,CLR,0.00,510.00,VWS V14.01,2013-11-11 15:02:00,
2013-11-11 10:05:00,53.5,29.8,30.33,East,90,4.0,8.0,40,0.00,,CLR,0.00,609.00,VWS V15.00,2013-11-11 15:05:00,
2013-11-11 10:07:00,51.9,30.1,30.35,ENE,74,8.0,8.0,43,0.00,,CLR,0.00,520.00,VWS V14.01,2013-11-11 15:07:00,
2013-11-11 10:10:00,53.7,29.4,30.33,East,90,3.0,10.0,39,0.00,,CLR,0.00,615.00,VWS V15.00,2013-11-11 15:10:00,
2013-11-11 10:12:00,51.7,29.9,30.35,East,96,4.0,4.0,43,0.00,,CLR,0.00,527.00,VWS V14.01,2013-11-11 15:12:00,
2013-11-11 10:15:00,53.9,30.1,30.33,East,90,4.0,9.0,40,0.00,,CLR,0.00,620.00,VWS V15.00,2013-11-11 15:15:00,
2013-11-11 10:17:00,51.9,29.5,30.35,ENE,74,8.0,8.0,42,0.00,,CLR,0.00,541.00,VWS V14.01,2013-11-11 15:17:00,
2013-11-11 10:20:00,54.2,30.4,30.33,East,90,4.0,9.0,40,0.00,,CLR,0.00,625.00,VWS V15.00,2013-11-11 15:20:00,
2013-11-11 10:22:00,52.0,29.6,30.35,East,87,9.0,9.0,42,0.00,,CLR,0.00,550.00,VWS V14.01,2013-11-11 15:22:00,
2013-11-11 10:25:00,54.5,30.1,30.33,NE,45,3.0,10.0,39,0.00,,CLR,0.00,628.00,VWS V15.00,2013-11-11 15:25:00,
2013-11-11 10:27:00,52.2,29.2,30.35,ENE,77,3.0,3.0,41,0.00,,CLR,0.00,557.00,VWS V14.01,2013-11-11 15:27:00,
2013-11-11 10:30:00,54.8,29.7,30.32,NNE,22,3.0,7.0,38,0.00,,CLR,0.00,632.00,VWS V15.00,2013-11-11 15:30:00,
2013-11-11 10:32:00,52.0,30.2,30.34,East,97,9.0,9.0,43,0.00,,CLR,0.00,568.00,VWS V14.01,2013-11-11 15:32:00,
2013-11-11 10:35:00,55.1,30.0,30.32,SE,135,2.0,7.0,38,0.00,,CLR,0.00,634.00,VWS V15.00,2013-11-11 15:35:00,
2013-11-11 10:37:00,52.0,29.6,30.34,East,96,6.0,6.0,42,0.00,,CLR,0.00,575.00,VWS V14.01,2013-11-11 15:37:00,
2013-11-11 10:40:00,55.6,30.4,30.32,NNE,22,4.0,8.0,38,0.00,,CLR,0.00,637.00,VWS V15.00,2013-11-11 15:40:00,
2013-11-11 10:42:00,52.5,29.5,30.34,ENE,74,7.0,7.0,41,0.00,,CLR,0.00,596.00,VWS V14.01,2013-11-11 15:42:00,
2013-11-11 10:47:00,52.8,30.4,30.34,ESE,105,6.0,6.0,42,0.00,,CLR,0.00,589.00,VWS V14.01,2013-11-11 15:47:00,
2013-11-11 10:50:00,55.7,29.9,30.32,NE,45,3.0,8.0,37,0.00,,CLR,0.00,642.00,VWS V15.00,2013-11-11 15:50:00,
2013-11-11 10:52:00,53.1,30.0,30.34,ENE,63,1.0,3.0,41,0.00,,CLR,0.00,598.00,VWS V14.01,2013-11-11 15:52:00,
2013-11-11 10:55:00,55.7,29.2,30.31,ENE,68,2.0,7.0,36,0.00,,CLR,0.00,643.00,VWS V15.00,2013-11-11 15:55:00,
2013-11-11 10:57:00,53.5,29.8,30.34,ENE,63,8.0,8.0,40,0.00,,CLR,0.00,603.00,VWS V14.01,2013-11-11 15:57:00,
2013-11-11 11:00:00,56.0,30.1,30.31,NE,45,3.0,9.0,37,0.00,,CLR,0.00,644.00,VWS V15.00,2013-11-11 16:00:00,
2013-11-11 11:03:00,53.4,29.7,30.33,ENE,71,5.0,5.0,40,0.00,,CLR,0.00,608.00,VWS V14.01,2013-11-11 16:03:00,
2013-11-11 11:05:00,55.9,29.4,30.30,NE,45,2.0,5.0,36,0.00,,CLR,0.00,643.00,VWS V15.00,2013-11-11 16:05:00,
2013-11-11 11:08:00,53.6,29.9,30.33,ENE,70,0.0,3.0,40,0.00,,CLR,0.00,613.00,VWS V14.01,2013-11-11 16:08:00,
2013-11-11 11:10:00,56.1,29.5,30.30,South,180,4.0,7.0,36,0.00,,CLR,0.00,644.00,VWS V15.00,2013-11-11 16:10:00,
2013-11-11 11:13:00,53.9,29.5,30.33,ENE,63,5.0,5.0,39,0.00,,CLR,0.00,619.00,VWS V14.01,2013-11-11 16:13:00,
2013-11-11 11:15:00,56.4,29.1,30.30,NE,45,4.0,9.0,35,0.00,,CLR,0.00,643.00,VWS V15.00,2013-11-11 16:15:00,
2013-11-11 11:18:00,54.0,30.2,30.33,ENE,66,8.0,8.0,40,0.00,,CLR,0.00,624.00,VWS V14.01,2013-11-11 16:18:00,
2013-11-11 11:20:00,56.5,29.9,30.29,NE,45,2.0,4.0,36,0.00,,CLR,0.00,641.00,VWS V15.00,2013-11-11 16:20:00,
2013-11-11 11:23:00,54.4,30.0,30.33,North,9,3.0,3.0,39,0.00,,CLR,0.00,628.00,VWS V14.01,2013-11-11 16:23:00,
2013-11-11 11:25:00,56.7,29.4,30.29,SSW,202,2.0,5.0,35,0.00,,CLR,0.00,641.00,VWS V15.00,2013-11-11 16:25:00,
2013-11-11 11:28:00,54.8,29.7,30.33,NNW,343,3.0,3.0,38,0.00,,CLR,0.00,631.00,VWS V14.01,2013-11-11 16:28:00,
2013-11-11 11:30:00,57.1,29.7,30.29,ESE,112,3.0,7.0,35,0.00,,CLR,0.00,639.00,VWS V15.00,2013-11-11 16:30:00,
2013-11-11 11:33:00,55.0,29.9,30.32,NW,315,4.0,4.0,38,0.00,,CLR,0.00,635.00,VWS V14.01,2013-11-11 16:33:00,
2013-11-11 11:35:00,57.4,29.3,30.29,East,90,4.0,8.0,34,0.00,,CLR,0.00,638.00,VWS V15.00,2013-11-11 16:35:00,
2013-11-11 11:38:00,55.3,30.8,30.32,NNE,15,4.0,4.0,39,0.00,,CLR,0.00,636.00,VWS V14.01,2013-11-11 16:38:00,
2013-11-11 11:40:00,57.4,29.3,30.29,East,90,3.0,7.0,34,0.00,,CLR,0.00,634.00,VWS V15.00,2013-11-11 16:40:00,
2013-11-11 11:43:00,56.0,30.1,30.32,North,355,3.0,3.0,37,0.00,,CLR,0.00,640.00,VWS V14.01,2013-11-11 16:43:00,
2013-11-11 11:45:00,58.0,29.1,30.28,East,90,2.0,6.0,33,0.00,,CLR,0.00,630.00,VWS V15.00,2013-11-11 16:45:00,
2013-11-11 11:48:00,55.7,29.9,30.32,NNE,31,2.0,3.0,37,0.00,,CLR,0.00,642.00,VWS V14.01,2013-11-11 16:48:00,
2013-11-11 11:50:00,58.4,28.7,30.28,SSE,158,2.0,5.0,32,0.00,,CLR,0.00,628.00,VWS V15.00,2013-11-11 16:50:00,
2013-11-11 11:53:00,55.7,29.9,30.31,ENE,67,2.0,3.0,37,0.00,,CLR,0.00,643.00,VWS V14.01,2013-11-11 16:53:00,
2013-11-11 11:55:00,58.8,30.5,30.27,SE,135,2.0,8.0,34,0.00,,CLR,0.00,623.00,VWS V15.00,2013-11-11 16:55:00,
2013-11-11 11:58:00,55.8,30.6,30.31,NE,49,4.0,4.0,38,0.00,,CLR,0.00,645.00,VWS V14.01,2013-11-11 16:58:00,
2013-11-11 12:00:00,58.7,28.9,30.27,East,90,3.0,6.0,32,0.00,,CLR,0.00,619.00,VWS V15.00,2013-11-11 17:00:00,
2013-11-11 12:03:00,55.9,29.4,30.30,WSW,252,3.0,3.0,36,0.00,,CLR,0.00,642.00,VWS V14.01,2013-11-11 17:03:00,
2013-11-11 12:05:00,58.5,28.8,30.26,NE,45,4.0,8.0,32,0.00,,CLR,0.00,613.00,VWS V15.00,2013-11-11 17:05:00,
2013-11-11 12:08:00,56.1,28.8,30.30,South,177,1.0,3.0,35,0.00,,CLR,0.00,645.00,VWS V14.01,2013-11-11 17:08:00,
2013-11-11 12:10:00,58.2,28.5,30.26,NE,45,4.0,8.0,32,0.00,,CLR,0.00,607.00,VWS V15.00,2013-11-11 17:10:00,
2013-11-11 12:13:00,56.4,29.1,30.30,NW,325,3.0,3.0,35,0.00,,CLR,0.00,643.00,VWS V14.01,2013-11-11 17:13:00,
2013-11-11 12:15:00,58.5,28.0,30.25,ESE,112,3.0,8.0,31,0.00,,CLR,0.00,601.00,VWS V15.00,2013-11-11 17:15:00,
2013-11-11 12:18:00,56.4,29.1,30.29,NE,46,0.0,3.0,35,0.00,,CLR,0.00,640.00,VWS V14.01,2013-11-11 17:18:00,
2013-11-11 12:20:00,58.5,28.0,30.25,NE,45,3.0,9.0,31,0.00,,CLR,0.00,595.00,VWS V15.00,2013-11-11 17:20:00,
2013-11-11 12:24:00,56.6,29.3,30.29,SE,128,2.0,3.0,35,0.00,,CLR,0.00,642.00,VWS V14.01,2013-11-11 17:24:00,
2013-11-11 12:25:00,58.4,28.7,30.25,East,90,2.0,7.0,32,0.00,,CLR,0.00,589.00,VWS V15.00,2013-11-11 17:25:00,
2013-11-11 12:29:00,57.1,29.0,30.29,ESE,114,2.0,3.0,34,0.00,,CLR,0.00,640.00,VWS V14.01,2013-11-11 17:29:00,
2013-11-11 12:30:00,58.9,29.1,30.25,North,0,2.0,4.0,32,0.00,,CLR,0.00,584.00,VWS V15.00,2013-11-11 17:30:00,
2013-11-11 12:34:00,57.4,29.3,30.29,ENE,69,3.0,3.0,34,0.00,,CLR,0.00,638.00,VWS V14.01,2013-11-11 17:34:00,
2013-11-11 12:35:00,59.3,28.7,30.24,West,270,2.0,4.0,31,0.00,,CLR,0.00,579.00,VWS V15.00,2013-11-11 17:35:00,
2013-11-11 12:39:00,57.3,29.9,30.29,ESE,102,2.0,3.0,35,0.00,,CLR,0.00,633.00,VWS V14.01,2013-11-11 17:39:00,
2013-11-11 12:40:00,59.8,28.3,30.24,East,90,2.0,8.0,30,0.00,,CLR,0.00,571.00,VWS V15.00,2013-11-11 17:40:00,
2013-11-11 12:44:00,57.8,30.4,30.28,ESE,119,4.0,4.0,35,0.00,,CLR,0.00,629.00,VWS V14.01,2013-11-11 17:44:00,
2013-11-11 12:45:00,59.9,30.0,30.24,ENE,68,2.0,4.0,32,0.00,,CLR,0.00,561.00,VWS V15.00,2013-11-11 17:45:00,
2013-11-11 12:49:00,58.4,28.7,30.28,SSE,153,2.0,3.0,32,0.00,,CLR,0.00,628.00,VWS V14.01,2013-11-11 17:49:00,
2013-11-11 12:50:00,60.0,29.3,30.24,North,0,4.0,10.0,31,0.00,,CLR,0.00,554.00,VWS V15.00,2013-11-11 17:50:00,
2013-11-11 12:54:00,58.7,29.7,30.27,ENE,65,5.0,5.0,33,0.00,,CLR,0.00,622.00,VWS V14.01,2013-11-11 17:54:00,
2013-11-11 12:55:00,60.3,28.8,30.24,North,0,3.0,5.0,30,0.00,,CLR,0.00,543.00,VWS V15.00,2013-11-11 17:55:00,
2013-11-11 12:59:00,58.7,28.9,30.27,North,9,3.0,3.0,32,0.00,,CLR,0.00,615.00,VWS V14.01,2013-11-11 17:59:00,
2013-11-11 13:00:00,60.4,28.9,30.24,NW,315,2.0,5.0,30,0.00,,CLR,0.00,533.00,VWS V15.00,2013-11-11 18:00:00,
2013-11-11 13:04:00,58.6,28.9,30.26,NE,44,7.0,7.0,32,0.00,,CLR,0.00,610.00,VWS V14.01,2013-11-11 18:04:00,
2013-11-11 13:05:00,60.4,28.9,30.24,NW,315,2.0,6.0,30,0.00,,CLR,0.00,523.00,VWS V15.00,2013-11-11 18:05:00,
2013-11-11 13:09:00,58.2,28.5,30.26,ESE,113,3.0,3.0,32,0.00,,CLR,0.00,603.00,VWS V14.01,2013-11-11 18:09:00,
2013-11-11 13:10:00,60.5,28.1,30.24,West,270,2.0,4.0,29,0.00,,CLR,0.00,515.00,VWS V15.00,2013-11-11 18:10:00,
2013-11-11 13:14:00,58.5,28.0,30.25,ESE,117,3.0,3.0,31,0.00,,CLR,0.00,599.00,VWS V14.01,2013-11-11 18:14:00,
2013-11-11 13:15:00,60.7,28.3,30.23,West,270,2.0,4.0,29,0.00,,CLR,0.00,504.00,VWS V15.00,2013-11-11 18:15:00,
2013-11-11 13:19:00,58.5,28.0,30.25,NE,49,4.0,4.0,31,0.00,,CLR,0.00,594.00,VWS V14.01,2013-11-11 18:19:00,
2013-11-11 13:20:00,61.1,28.6,30.23,West,270,2.0,4.0,29,0.00,,CLR,0.00,494.00,VWS V15.00,2013-11-11 18:20:00,
2013-11-11 13:24:00,58.4,28.7,30.25,North,360,1.0,3.0,32,0.00,,CLR,0.00,589.00,VWS V14.01,2013-11-11 18:24:00,
2013-11-11 13:25:00,60.9,27.6,30.23,East,90,3.0,7.0,28,0.00,,CLR,0.00,481.00,VWS V15.00,2013-11-11 18:25:00,
2013-11-11 13:29:00,58.9,29.1,30.25,WNW,303,0.0,3.0,32,0.00,,CLR,0.00,582.00,VWS V14.01,2013-11-11 18:29:00,
2013-11-11 13:30:00,60.7,28.3,30.23,NE,45,3.0,6.0,29,0.00,,CLR,0.00,470.00,VWS V15.00,2013-11-11 18:30:00,
2013-11-11 13:34:00,59.3,28.7,30.24,WSW,255,1.0,3.0,31,0.00,,CLR,0.00,575.00,VWS V14.01,2013-11-11 18:34:00,
2013-11-11 13:35:00,60.3,27.1,30.23,ENE,68,3.0,5.0,28,0.00,,CLR,0.00,458.00,VWS V15.00,2013-11-11 18:35:00,
2013-11-11 13:39:00,59.8,29.1,30.24,ESE,113,4.0,4.0,31,0.00,,CLR,0.00,568.00,VWS V14.01,2013-11-11 18:39:00,
2013-11-11 13:40:00,60.6,28.2,30.23,ENE,68,1.0,3.0,29,0.00,,CLR,0.00,446.00,VWS V15.00,2013-11-11 18:40:00,
2013-11-11 13:45:00,59.9,30.0,30.24,East,83,2.0,0.0,32,0.00,,CLR,0.00,557.00,VWS V14.01,2013-11-11 18:45:00,
2013-11-11 13:50:00,61.3,27.9,30.23,NE,45,1.0,3.0,28,0.00,,CLR,0.00,421.00,VWS V15.00,2013-11-11 18:50:00,
2013-11-11 13:55:00,61.4,28.0,30.22,NNW,338,1.0,3.0,28,0.00,,CLR,0.00,408.00,VWS V15.00,2013-11-11 18:55:00,
2013-11-11 13:59:00,60.0,29.3,30.24,North,0,4.0,10.0,31,0.00,,CLR,0.00,554.00,VWS V14.01,2013-11-11 18:59:00,
2013-11-11 14:00:00,61.6,28.2,30.22,SW,225,1.0,3.0,28,0.00,,CLR,0.00,394.00,VWS V15.00,2013-11-11 19:00:00,
2013-11-11 14:04:00,60.4,28.9,30.24,WNW,291,2.0,10.0,30,0.00,,CLR,0.00,519.00,VWS V14.01,2013-11-11 19:04:00,
2013-11-11 14:05:00,61.6,27.3,30.22,South,180,2.0,4.0,27,0.00,,CLR,0.00,381.00,VWS V15.00,2013-11-11 19:05:00,
2013-11-11 14:09:00,60.5,29.7,30.24,West,275,4.0,10.0,31,0.00,,CLR,0.00,510.00,VWS V14.01,2013-11-11 19:09:00,
2013-11-11 14:10:00,61.6,28.2,30.22,SSE,158,1.0,2.0,28,0.00,,CLR,0.00,366.00,VWS V15.00,2013-11-11 19:10:00,
2013-11-11 14:14:00,60.7,29.1,30.23,West,271,2.0,10.0,30,0.00,,CLR,0.00,501.00,VWS V14.01,2013-11-11 19:14:00,
2013-11-11 14:15:00,61.9,28.5,30.22,South,180,1.0,3.0,28,0.00,,CLR,0.00,352.00,VWS V15.00,2013-11-11 19:15:00,
2013-11-11 14:19:00,61.1,28.6,30.23,SE,131,3.0,10.0,29,0.00,,CLR,0.00,489.00,VWS V14.01,2013-11-11 19:19:00,
2013-11-11 14:20:00,61.8,28.4,30.21,SE,135,1.0,3.0,28,0.00,,CLR,0.00,338.00,VWS V15.00,2013-11-11 19:20:00,
2013-11-11 14:24:00,60.9,27.6,30.23,NW,324,3.0,10.0,28,0.00,,CLR,0.00,476.00,VWS V14.01,2013-11-11 19:24:00,
2013-11-11 14:25:00,61.6,27.3,30.21,SSE,158,2.0,3.0,27,0.00,,CLR,0.00,323.00,VWS V15.00,2013-11-11 19:25:00,
2013-11-11 14:29:00,60.7,28.3,30.23,NE,44,4.0,10.0,29,0.00,,CLR,0.00,466.00,VWS V14.01,2013-11-11 19:29:00,
2013-11-11 14:30:00,61.6,27.3,30.21,SSW,202,2.0,4.0,27,0.00,,CLR,0.00,307.00,VWS V15.00,2013-11-11 19:30:00,
2013-11-11 14:35:00,60.3,27.1,30.23,ENE,72,1.0,10.0,28,0.00,,CLR,0.00,452.00,VWS V14.01,2013-11-11 19:35:00,
2013-11-11 14:40:00,60.6,28.2,30.23,North,355,2.0,10.0,29,0.00,,CLR,0.00,441.00,VWS V14.01,2013-11-11 19:40:00,
2013-11-11 14:45:00,61.1,27.8,30.23,NE,52,3.0,10.0,28,0.00,,CLR,0.00,429.00,VWS V14.01,2013-11-11 19:45:00,
2013-11-11 14:50:00,61.3,27.9,30.23,NNW,345,1.0,10.0,28,0.00,,CLR,0.00,417.00,VWS V14.01,2013-11-11 19:50:00,
2013-11-11 14:55:00,61.4,28.0,30.22,ENE,70,2.0,10.0,28,0.00,,CLR,0.00,403.00,VWS V14.01,2013-11-11 19:55:00,
2013-11-11 15:00:00,61.6,28.2,30.22,South,190,2.0,10.0,28,0.00,,CLR,0.00,388.00,VWS V14.01,2013-11-11 20:00:00,
2013-11-11 15:05:00,61.6,27.3,30.22,West,267,1.0,10.0,27,0.00,,CLR,0.00,374.00,VWS V14.01,2013-11-11 20:05:00,
2013-11-11 15:10:00,61.7,28.3,30.22,West,263,0.0,10.0,28,0.00,,CLR,0.00,359.00,VWS V14.01,2013-11-11 20:10:00,
2013-11-11 15:15:00,61.8,28.4,30.22,SE,142,1.0,10.0,28,0.00,,CLR,0.00,345.00,VWS V14.01,2013-11-11 20:15:00,
2013-11-11 15:20:00,61.8,28.4,30.21,SSE,148,1.0,10.0,28,0.00,,CLR,0.00,329.00,VWS V14.01,2013-11-11 20:20:00,
2013-11-11 15:25:00,61.6,27.3,30.21,ENE,63,1.0,10.0,27,0.00,,CLR,0.00,313.00,VWS V14.01,2013-11-11 20:25:00,
2013-11-11 15:30:00,61.6,27.3,30.21,East,94,0.0,10.0,27,0.00,,CLR,0.00,299.00,VWS V14.01,2013-11-11 20:30:00,
2013-11-11 15:35:00,60.0,27.7,30.20,ESE,112,2.0,3.0,29,0.00,,CLR,0.00,73.00,VWS V15.00,2013-11-11 20:35:00,
2013-11-11 15:36:00,61.8,27.5,30.21,NNE,17,0.0,10.0,27,0.00,,CLR,0.00,279.00,VWS V14.01,2013-11-11 20:36:00,
2013-11-11 15:40:00,59.7,28.2,30.20,SE,135,2.0,4.0,30,0.00,,CLR,0.00,58.00,VWS V15.00,2013-11-11 20:40:00,
2013-11-11 15:41:00,61.8,27.5,30.21,North,5,2.0,10.0,27,0.00,,CLR,0.00,262.00,VWS V14.01,2013-11-11 20:41:00,
2013-11-11 15:45:00,59.7,28.2,30.20,SSW,202,1.0,2.0,30,0.00,,CLR,0.00,41.00,VWS V15.00,2013-11-11 20:45:00,
2013-11-11 15:46:00,61.7,27.4,30.21,SE,136,0.0,10.0,27,0.00,,CLR,0.00,243.00,VWS V14.01,2013-11-11 20:46:00,
2013-11-11 15:50:00,59.3,27.9,30.21,South,180,0.0,1.0,30,0.00,,CLR,0.00,24.00,VWS V15.00,2013-11-11 20:50:00,
2013-11-11 15:51:00,61.8,27.5,30.21,East,85,1.0,10.0,27,0.00,,CLR,0.00,223.00,VWS V14.01,2013-11-11 20:51:00,
2013-11-11 15:55:00,58.9,28.3,30.20,South,180,0.0,1.0,31,0.00,,CLR,0.00,19.00,VWS V15.00,2013-11-11 20:55:00,
2013-11-11 15:56:00,61.5,27.2,30.21,NE,51,1.0,10.0,27,0.00,,CLR,0.00,202.00,VWS V14.01,2013-11-11 20:56:00,
2013-11-11 16:00:00,58.4,29.4,30.21,South,180,1.0,1.0,33,0.00,,CLR,0.00,17.00,VWS V15.00,2013-11-11 21:00:00,
2013-11-11 16:01:00,61.3,27.9,30.21,South,175,2.0,10.0,28,0.00,,CLR,0.00,185.00,VWS V14.01,2013-11-11 21:01:00,
2013-11-11 16:05:00,57.6,29.5,30.21,SSE,158,1.0,1.0,34,0.00,,CLR,0.00,13.00,VWS V15.00,2013-11-11 21:05:00,
2013-11-11 16:06:00,61.0,27.7,30.21,ESE,119,1.0,10.0,28,0.00,,CLR,0.00,163.00,VWS V14.01,2013-11-11 21:06:00,
2013-11-11 16:10:00,56.9,29.5,30.20,SSE,158,0.0,1.0,35,0.00,,CLR,0.00,11.00,VWS V15.00,2013-11-11 21:10:00,
2013-11-11 16:11:00,61.0,27.7,30.21,ENE,77,3.0,10.0,28,0.00,,CLR,0.00,144.00,VWS V14.01,2013-11-11 21:11:00,
2013-11-11 16:15:00,56.4,29.8,30.20,SSE,158,0.0,0.0,36,0.00,,CLR,0.00,8.00,VWS V15.00,2013-11-11 21:15:00,
2013-11-11 16:16:00,60.8,28.4,30.20,ESE,119,3.0,10.0,29,0.00,,CLR,0.00,127.00,VWS V14.01,2013-11-11 21:16:00,
2013-11-11 16:20:00,55.7,29.9,30.20,SSE,158,0.0,1.0,37,0.00,,CLR,0.00,5.00,VWS V15.00,2013-11-11 21:20:00,
2013-11-11 16:21:00,60.6,28.2,30.20,SE,135,3.0,10.0,29,0.00,,CLR,0.00,107.00,VWS V14.01,2013-11-11 21:21:00,
2013-11-11 16:25:00,55.0,29.9,30.20,SSE,158,0.0,0.0,38,0.00,,CLR,0.00,0.00,VWS V15.00,2013-11-11 21:25:00,
2013-11-11 16:27:00,60.3,27.9,30.20,SE,135,2.0,10.0,29,0.00,,CLR,0.00,90.00,VWS V14.01,2013-11-11 21:27:00,
2013-11-11 16:30:00,54.4,30.6,30.21,SSE,158,0.0,0.0,40,0.00,,CLR,0.00,0.00,VWS V15.00,2013-11-11 21:30:00,
2013-11-11 16:32:00,60.0,27.7,30.20,ESE,117,2.0,10.0,29,0.00,,CLR,0.00,74.00,VWS V14.01,2013-11-11 21:32:00,
2013-11-11 16:35:00,53.6,30.5,30.21,SSE,158,0.0,0.0,41,0.00,,CLR,0.00,0.00,VWS V15.00,2013-11-11 21:35:00,
2013-11-11 16:37:00,59.9,28.4,30.20,SE,127,1.0,10.0,30,0.00,,CLR,0.00,62.00,VWS V14.01,2013-11-11 21:37:00,
2013-11-11 16:40:00,52.9,30.5,30.21,SSE,158,0.0,0.0,42,0.00,,CLR,0.00,0.00,VWS V15.00,2013-11-11 21:40:00,
2013-11-11 16:42:00,59.7,28.2,30.20,SSW,194,1.0,10.0,30,0.00,,CLR,0.00,44.00,VWS V14.01,2013-11-11 21:42:00,
2013-11-11 16:45:00,51.9,30.1,30.21,SSE,158,0.0,1.0,43,0.00,,CLR,0.00,0.00,VWS V15.00,2013-11-11 21:45:00,
2013-11-11 16:47:00,59.5,28.1,30.21,South,184,0.0,10.0,30,0.00,,CLR,0.00,26.00,VWS V14.01,2013-11-11 21:47:00,
2013-11-11 16:50:00,50.9,30.9,30.21,SSE,158,1.0,1.0,46,0.00,,CLR,0.00,0.00,VWS V15.00,2013-11-11 21:50:00,
2013-11-11 16:52:00,59.1,28.5,30.21,South,184,0.0,10.0,31,0.00,,CLR,0.00,19.00,VWS V14.01,2013-11-11 21:52:00,
2013-11-11 16:55:00,50.0,30.6,30.21,SSE,158,1.0,1.0,47,0.00,,CLR,0.00,0.00,VWS V15.00,2013-11-11 21:55:00,
2013-11-11 16:57:00,58.7,29.7,30.20,South,184,1.0,10.0,33,0.00,,CLR,0.00,16.00,VWS V14.01,2013-11-11 21:57:00,
2013-11-11 17:00:00,49.6,31.2,30.21,SSE,158,0.0,1.0,49,0.00,,CLR,0.00,0.00,VWS V15.00,2013-11-11 22:00:00,
2013-11-11 17:02:00,58.0,29.1,30.21,SSE,155,1.0,10.0,33,0.00,,CLR,0.00,14.00,VWS V14.01,2013-11-11 22:02:00,
2013-11-11 17:05:00,49.4,31.1,30.21,SSE,158,0.0,0.0,49,0.00,,CLR,0.00,0.00,VWS V15.00,2013-11-11 22:05:00,
2013-11-11 17:07:00,57.2,29.1,30.21,SSE,155,0.0,10.0,34,0.00,,CLR,0.00,11.00,VWS V14.01,2013-11-11 22:07:00,
2013-11-11 17:10:00,49.1,31.3,30.21,SSE,158,0.0,0.0,50,0.00,,CLR,0.00,0.00,VWS V15.00,2013-11-11 22:10:00,
2013-11-11 17:12:00,56.7,30.1,30.20,SSE,155,0.0,10.0,36,0.00,,CLR,0.00,9.00,VWS V14.01,2013-11-11 22:12:00,
2013-11-11 17:15:00,48.7,30.9,30.21,SSE,158,0.0,0.0,50,0.00,,CLR,0.00,0.00,VWS V15.00,2013-11-11 22:15:00,
2013-11-11 17:17:00,56.1,29.5,30.20,SSE,155,0.0,10.0,36,0.00,,CLR,0.00,5.00,VWS V14.01,2013-11-11 22:17:00,
2013-11-11 17:20:00,48.2,30.5,30.21,SSE,158,0.0,1.0,50,0.00,,CLR,0.00,0.00,VWS V15.00,2013-11-11 22:20:00,
2013-11-11 17:22:00,55.3,29.5,30.20,SSE,155,0.0,10.0,37,0.00,,CLR,0.00,0.00,VWS V14.01,2013-11-11 22:22:00,
2013-11-11 17:25:00,47.7,30.5,30.20,SE,135,0.0,1.0,51,0.00,,CLR,0.00,0.00,VWS V15.00,2013-11-11 22:25:00,
2013-11-11 17:27:00,54.6,30.2,30.21,SSE,155,0.0,10.0,39,0.00,,CLR,0.00,0.00,VWS V14.01,2013-11-11 22:27:00,
2013-11-11 17:30:00,47.4,30.2,30.20,SE,135,0.0,0.0,51,0.00,,CLR,0.00,0.00,VWS V15.00,2013-11-11 22:30:00,
2013-11-11 17:33:00,53.9,30.1,30.21,SSE,155,0.0,10.0,40,0.00,,CLR,0.00,0.00,VWS V14.01,2013-11-11 22:33:00,
2013-11-11 17:35:00,47.1,30.9,30.20,SE,135,1.0,2.0,53,0.00,,CLR,0.00,0.00,VWS V15.00,2013-11-11 22:35:00,
2013-11-11 17:38:00,53.2,30.1,30.21,SSE,155,0.0,10.0,41,0.00,,CLR,0.00,0.00,VWS V14.01,2013-11-11 22:38:00,
2013-11-11 17:40:00,46.6,30.9,30.20,SE,135,1.0,1.0,54,0.00,,CLR,0.00,0.00,VWS V15.00,2013-11-11 22:40:00,
2013-11-11 17:43:00,52.3,30.5,30.21,SSE,155,0.0,10.0,43,0.00,,CLR,0.00,0.00,VWS V14.01,2013-11-11 22:43:00,
2013-11-11 17:45:00,46.2,30.9,30.20,SE,135,0.0,1.0,55,0.00,,CLR,0.00,0.00,VWS V15.00,2013-11-11 22:45:00,
2013-11-11 17:48:00,51.3,30.7,30.21,SSE,155,1.0,10.0,45,0.00,,CLR,0.00,0.00,VWS V14.01,2013-11-11 22:48:00,
2013-11-11 17:50:00,46.1,30.4,30.20,SE,135,1.0,2.0,54,0.00,,CLR,0.00,0.00,VWS V15.00,2013-11-11 22:50:00,
2013-11-11 17:53:00,50.3,30.3,30.21,SSE,155,0.0,10.0,46,0.00,,CLR,0.00,0.00,VWS V14.01,2013-11-11 22:53:00,
2013-11-11 17:55:00,46.1,30.9,30.20,SE,135,0.0,0.0,55,0.00,,CLR,0.00,0.00,VWS V15.00,2013-11-11 22:55:00,
2013-11-11 17:58:00,49.7,31.3,30.21,SSE,150,0.0,10.0,49,0.00,,CLR,0.00,0.00,VWS V14.01,2013-11-11 22:58:00,
2013-11-11 18:00:00,46.0,30.8,30.20,SE,135,0.0,0.0,55,0.00,,CLR,0.00,0.00,VWS V15.00,2013-11-11 23:00:00,
2013-11-11 18:03:00,49.4,31.1,30.21,SSE,150,0.0,10.0,49,0.00,,CLR,0.00,0.00,VWS V14.01,2013-11-11 23:03:00,
2013-11-11 18:05:00,45.7,30.9,30.20,SE,135,0.0,0.0,56,0.00,,CLR,0.00,0.00,VWS V15.00,2013-11-11 23:05:00,
2013-11-11 18:08:00,49.2,30.9,30.21,SSE,150,0.0,10.0,49,0.00,,CLR,0.00,0.00,VWS V14.01,2013-11-11 23:08:00,
2013-11-11 18:10:00,45.2,30.9,30.20,SE,135,0.0,0.0,57,0.00,,CLR,0.00,0.00,VWS V15.00,2013-11-11 23:10:00,
2013-11-11 18:13:00,48.8,30.5,30.21,SSE,150,0.0,10.0,49,0.00,,CLR,0.00,0.00,VWS V14.01,2013-11-11 23:13:00,
2013-11-11 18:15:00,44.8,30.9,30.20,SE,135,0.0,0.0,58,0.00,,CLR,0.00,0.00,VWS V15.00,2013-11-11 23:15:00,
2013-11-11 18:18:00,48.3,30.5,30.21,SSE,150,1.0,10.0,50,0.00,,CLR,0.00,0.00,VWS V14.01,2013-11-11 23:18:00,
2013-11-11 18:20:00,44.3,31.3,30.20,SE,135,0.0,0.0,60,0.00,,CLR,0.00,0.00,VWS V15.00,2013-11-11 23:20:00,
2013-11-11 18:23:00,47.8,30.6,30.20,SE,133,0.0,10.0,51,0.00,,CLR,0.00,0.00,VWS V14.01,2013-11-11 23:23:00,
2013-11-11 18:25:00,43.8,31.2,30.20,SE,135,0.0,0.0,61,0.00,,CLR,0.00,0.00,VWS V15.00,2013-11-11 23:25:00,
2013-11-11 18:28:00,47.4,30.2,30.20,SE,133,0.0,10.0,51,0.00,,CLR,0.00,0.00,VWS V14.01,2013-11-11 23:28:00,
2013-11-11 18:30:00,43.4,31.3,30.20,SE,135,0.0,0.0,62,0.00,,CLR,0.00,0.00,VWS V15.00,2013-11-11 23:30:00,
2013-11-11 18:34:00,47.1,30.4,30.20,SE,131,1.0,10.0,52,0.00,,CLR,0.00,0.00,VWS V14.01,2013-11-11 23:34:00,
2013-11-11 18:35:00,43.2,30.7,30.20,SE,135,0.0,0.0,61,0.00,,CLR,0.00,0.00,VWS V15.00,2013-11-11 23:35:00,
2013-11-11 18:39:00,46.7,30.5,30.20,SE,128,1.0,10.0,53,0.00,,CLR,0.00,0.00,VWS V14.01,2013-11-11 23:39:00,
2013-11-11 18:40:00,42.9,30.8,30.21,SE,135,0.0,0.0,62,0.00,,CLR,0.00,0.00,VWS V15.00,2013-11-11 23:40:00,
2013-11-11 18:44:00,46.3,31.0,30.20,SE,128,0.0,10.0,55,0.00,,CLR,0.00,0.00,VWS V14.01,2013-11-11 23:44:00,
2013-11-11 18:45:00,42.6,30.5,30.20,SE,135,0.0,0.0,62,0.00,,CLR,0.00,0.00,VWS V15.00,2013-11-11 23:45:00,
2013-11-11 18:49:00,46.0,30.3,30.20,SE,128,0.0,10.0,54,0.00,,CLR,0.00,0.00,VWS V14.01,2013-11-11 23:49:00,
2013-11-11 18:50:00,42.3,30.6,30.20,SE,135,0.0,0.0,63,0.00,,CLR,0.00,0.00,VWS V15.00,2013-11-11 23:50:00,
2013-11-11 18:54:00,46.1,30.9,30.20,SE,128,0.0,10.0,55,0.00,,CLR,0.00,0.00,VWS V14.01,2013-11-11 23:54:00,
2013-11-11 18:55:00,42.0,30.7,30.20,SE,135,0.0,0.0,64,0.00,,CLR,0.00,0.00,VWS V15.00,2013-11-11 23:55:00,
2013-11-11 18:59:00,46.0,30.8,30.20,SE,128,0.0,10.0,55,0.00,,CLR,0.00,0.00,VWS V14.01,2013-11-11 23:59:00,
2013-11-11 19:00:00,42.0,30.7,30.20,SE,135,0.0,0.0,64,0.00,,CLR,0.00,0.00,VWS V15.00,2013-11-12 00:00:00,
2013-11-11 19:04:00,45.7,30.9,30.20,SE,128,0.0,10.0,56,0.00,,CLR,0.00,0.00,VWS V14.01,2013-11-12 00:04:00,
2013-11-11 19:05:00,41.8,30.5,30.20,SE,135,0.0,0.0,64,0.00,,CLR,0.00,0.00,VWS V15.00,2013-11-12 00:05:00,
2013-11-11 19:09:00,45.3,31.0,30.20,SE,128,0.0,10.0,57,0.00,,CLR,0.00,0.00,VWS V14.01,2013-11-12 00:09:00,
2013-11-11 19:10:00,41.5,30.6,30.20,SE,135,0.0,0.0,65,0.00,,CLR,0.00,0.00,VWS V15.00,2013-11-12 00:10:00,
2013-11-11 19:14:00,44.8,30.9,30.20,SE,128,0.0,10.0,58,0.00,,CLR,0.00,0.00,VWS V14.01,2013-11-12 00:14:00,
2013-11-11 19:15:00,41.5,30.2,30.20,SE,135,0.0,0.0,64,0.00,,CLR,0.00,0.00,VWS V15.00,2013-11-12 00:15:00,
2013-11-11 19:19:00,44.4,31.4,30.20,SE,128,0.0,10.0,60,0.00,,CLR,0.00,0.00,VWS V14.01,2013-11-12 00:19:00,
2013-11-11 19:20:00,41.7,30.4,30.20,SSE,158,0.0,1.0,64,0.00,,CLR,0.00,0.00,VWS V15.00,2013-11-12 00:20:00,
2013-11-11 19:24:00,43.9,31.3,30.20,SE,128,0.0,10.0,61,0.00,,CLR,0.00,0.00,VWS V14.01,2013-11-12 00:24:00,
2013-11-11 19:25:00,42.6,31.3,30.19,SSE,158,0.0,1.0,64,0.00,,CLR,0.00,0.00,VWS V15.00,2013-11-12 00:25:00,
2013-11-11 19:30:00,43.4,31.3,30.20,SE,128,0.0,10.0,62,0.00,,CLR,0.00,0.00,VWS V14.01,2013-11-12 00:30:00,
2013-11-11 19:35:00,43.2,30.7,30.20,SE,128,0.0,10.0,61,0.00,,CLR,0.00,0.00,VWS V14.01,2013-11-12 00:35:00,
2013-11-11 19:40:00,42.9,30.8,30.21,SE,128,0.0,10.0,62,0.00,,CLR,0.00,0.00,VWS V14.01,2013-11-12 00:40:00,
2013-11-11 19:45:00,42.6,30.5,30.20,SE,128,0.0,10.0,62,0.00,,CLR,0.00,0.00,VWS V14.01,2013-11-12 00:45:00,
2013-11-11 19:50:00,42.2,30.5,30.20,SE,128,0.0,10.0,63,0.00,,CLR,0.00,0.00,VWS V14.01,2013-11-12 00:50:00,
2013-11-11 19:55:00,42.0,30.7,30.20,SE,128,0.0,10.0,64,0.00,,CLR,0.00,0.00,VWS V14.01,2013-11-12 00:55:00,
2013-11-11 20:00:00,41.9,30.6,30.20,SE,128,0.0,10.0,64,0.00,,CLR,0.00,0.00,VWS V14.01,2013-11-12 01:00:00,
2013-11-11 20:05:00,41.8,30.5,30.20,SE,128,0.0,10.0,64,0.00,,CLR,0.00,0.00,VWS V14.01,2013-11-12 01:05:00,
2013-11-11 20:10:00,41.5,30.6,30.20,SE,128,0.0,10.0,65,0.00,,CLR,0.00,0.00,VWS V14.01,2013-11-12 01:10:00,
2013-11-11 20:15:00,41.5,30.2,30.20,SE,128,0.0,10.0,64,0.00,,CLR,0.00,0.00,VWS V14.01,2013-11-12 01:15:00,
2013-11-11 20:20:00,41.9,30.6,30.20,SSE,153,0.0,10.0,64,0.00,,CLR,0.00,0.00,VWS V14.01,2013-11-12 01:20:00,
2013-11-11 20:25:00,42.7,31.0,30.19,SSE,153,0.0,10.0,63,0.00,,CLR,0.00,0.00,VWS V14.01,2013-11-12 01:25:00,
2013-11-11 20:30:00,43.2,31.5,30.19,SE,135,0.0,0.0,63,0.00,,CLR,0.00,0.00,VWS V15.00,2013-11-12 01:30:00,
2013-11-11 20:31:00,42.9,31.2,30.19,SSE,153,0.0,10.0,63,0.00,,CLR,0.00,0.00,VWS V14.01,2013-11-12 01:31:00,
2013-11-11 20:35:00,42.8,31.5,30.19,SE,135,0.0,0.0,64,0.00,,CLR,0.00,0.00,VWS V15.00,2013-11-12 01:35:00,
2013-11-11 20:36:00,42.8,31.1,30.19,SSE,153,0.0,10.0,63,0.00,,CLR,0.00,0.00,VWS V14.01,2013-11-12 01:36:00,
2013-11-11 20:40:00,42.6,31.3,30.19,SE,135,0.0,0.0,64,0.00,,CLR,0.00,0.00,VWS V15.00,2013-11-12 01:40:00,
2013-11-11 20:41:00,42.7,31.4,30.19,SSE,153,0.0,10.0,64,0.00,,CLR,0.00,0.00,VWS V14.01,2013-11-12 01:41:00,
2013-11-11 20:45:00,42.4,31.5,30.19,SE,135,0.0,0.0,65,0.00,,CLR,0.00,0.00,VWS V15.00,2013-11-12 01:45:00,
2013-11-11 20:46:00,42.5,31.6,30.19,SSE,153,0.0,10.0,65,0.00,,CLR,0.00,0.00,VWS V14.01,2013-11-12 01:46:00,
2013-11-11 20:50:00,42.2,31.3,30.19,SE,135,0.0,0.0,65,0.00,,CLR,0.00,0.00,VWS V15.00,2013-11-12 01:50:00,
2013-11-11 20:51:00,42.4,31.5,30.20,SSE,153,0.0,10.0,65,0.00,,CLR,0.00,0.00,VWS V14.01,2013-11-12 01:51:00,
2013-11-11 20:55:00,42.1,31.6,30.20,SE,135,0.0,1.0,66,0.00,,CLR,0.00,0.00,VWS V15.00,2013-11-12 01:55:00,
2013-11-11 20:56:00,42.3,31.4,30.19,SSE,153,0.0,10.0,65,0.00,,CLR,0.00,0.00,VWS V14.01,2013-11-12 01:56:00,
2013-11-11 21:00:00,42.2,32.0,30.20,SE,135,0.0,1.0,67,0.00,,CLR,0.00,0.00,VWS V15.00,2013-11-12 02:00:00,
2013-11-11 21:01:00,42.4,31.5,30.19,SSE,153,0.0,10.0,65,0.00,,CLR,0.00,0.00,VWS V14.01,2013-11-12 02:01:00,
2013-11-11 21:05:00,42.1,32.0,30.19,SE,135,0.0,1.0,67,0.00,,CLR,0.00,0.00,VWS V15.00,2013-11-12 02:05:00,
2013-11-11 21:07:00,43.1,31.8,30.19,SE,142,0.0,10.0,64,0.00,,CLR,0.00,0.00,VWS V14.01,2013-11-12 02:07:00,
2013-11-11 21:10:00,42.2,32.0,30.20,SE,135,0.0,0.0,67,0.00,,CLR,0.00,0.00,VWS V15.00,2013-11-12 02:10:00,
2013-11-11 21:12:00,43.6,31.9,30.19,SE,142,0.0,10.0,63,0.00,,CLR,0.00,0.00,VWS V14.01,2013-11-12 02:12:00,
2013-11-11 21:15:00,42.2,32.0,30.20,SE,135,0.0,0.0,67,0.00,,CLR,0.00,0.00,VWS V15.00,2013-11-12 02:15:00,
2013-11-11 21:17:00,43.5,31.8,30.19,SE,142,0.0,10.0,63,0.00,,CLR,0.00,0.00,VWS V14.01,2013-11-12 02:17:00,
2013-11-11 21:20:00,41.9,31.8,30.19,SE,135,0.0,0.0,67,0.00,,CLR,0.00,0.00,VWS V15.00,2013-11-12 02:20:00,
2013-11-11 21:22:00,43.5,31.8,30.19,SE,142,0.0,10.0,63,0.00,,CLR,0.00,0.00,VWS V14.01,2013-11-12 02:22:00,
2013-11-11 21:25:00,41.5,31.7,30.20,SE,135,0.0,0.0,68,0.00,,CLR,0.00,0.00,VWS V15.00,2013-11-12 02:25:00,
2013-11-11 21:27:00,43.3,31.6,30.19,SE,142,0.0,10.0,63,0.00,,CLR,0.00,0.00,VWS V14.01,2013-11-12 02:27:00,
2013-11-11 21:30:00,41.1,31.7,30.19,SE,135,0.0,0.0,69,0.00,,CLR,0.00,0.00,VWS V15.00,2013-11-12 02:30:00,
2013-11-11 21:32:00,43.0,31.7,30.19,SE,142,0.0,10.0,64,0.00,,CLR,0.00,0.00,VWS V14.01,2013-11-12 02:32:00,
2013-11-11 21:35:00,40.8,31.8,30.19,SE,135,0.0,0.0,70,0.00,,CLR,0.00,0.00,VWS V15.00,2013-11-12 02:35:00,
2013-11-11 21:37:00,42.7,31.4,30.19,SE,142,0.0,10.0,64,0.00,,CLR,0.00,0.00,VWS V14.01,2013-11-12 02:37:00,
2013-11-11 21:40:00,40.5,31.9,30.19,SE,135,0.0,0.0,71,0.00,,CLR,0.00,0.00,VWS V15.00,2013-11-12 02:40:00,
2013-11-11 21:42:00,42.5,31.6,30.19,SE,142,0.0,10.0,65,0.00,,CLR,0.00,0.00,VWS V14.01,2013-11-12 02:42:00,
2013-11-11 21:45:00,40.6,32.0,30.19,SE,135,0.0,0.0,71,0.00,,CLR,0.00,0.00,VWS V15.00,2013-11-12 02:45:00,
2013-11-11 21:47:00,42.3,31.4,30.19,SE,142,0.0,10.0,65,0.00,,CLR,0.00,0.00,VWS V14.01,2013-11-12 02:47:00,
2013-11-11 21:50:00,40.4,31.8,30.19,SE,135,0.0,0.0,71,0.00,,CLR,0.00,0.00,VWS V15.00,2013-11-12 02:50:00,
2013-11-11 21:52:00,42.1,31.6,30.20,SE,142,0.0,10.0,66,0.00,,CLR,0.00,0.00,VWS V14.01,2013-11-12 02:52:00,
2013-11-11 21:55:00,40.2,32.2,30.19,SE,135,0.0,0.0,73,0.00,,CLR,0.00,0.00,VWS V15.00,2013-11-12 02:55:00,
2013-11-11 21:57:00,42.2,31.7,30.19,SE,142,0.0,10.0,66,0.00,,CLR,0.00,0.00,VWS V14.01,2013-11-12 02:57:00,
2013-11-11 22:00:00,40.1,32.2,30.19,SE,135,0.0,1.0,73,0.00,,CLR,0.00,0.00,VWS V15.00,2013-11-12 03:00:00,
2013-11-11 22:03:00,42.1,32.0,30.20,SE,142,1.0,10.0,67,0.00,,CLR,0.00,0.00,VWS V14.01,2013-11-12 03:03:00,
2013-11-11 22:05:00,40.0,32.4,30.18,SE,135,0.0,1.0,74,0.00,,CLR,0.00,0.00,VWS V15.00,2013-11-12 03:05:00,
2013-11-11 22:08:00,42.1,32.0,30.20,SE,142,0.0,10.0,67,0.00,,CLR,0.00,0.00,VWS V14.01,2013-11-12 03:08:00,
2013-11-11 22:10:00,40.0,32.1,30.18,SE,135,0.0,1.0,73,0.00,,CLR,0.00,0.00,VWS V15.00,2013-11-12 03:10:00,
2013-11-11 22:13:00,42.2,32.0,30.20,SE,142,0.0,10.0,67,0.00,,CLR,0.00,0.00,VWS V14.01,2013-11-12 03:13:00,
2013-11-11 22:15:00,40.2,32.2,30.18,SE,135,0.0,0.0,73,0.00,,CLR,0.00,0.00,VWS V15.00,2013-11-12 03:15:00,
2013-11-11 22:18:00,42.0,31.9,30.19,SE,142,0.0,10.0,67,0.00,,CLR,0.00,0.00,VWS V14.01,2013-11-12 03:18:00,
2013-11-11 22:20:00,40.2,32.2,30.18,SE,135,0.0,0.0,73,0.00,,CLR,0.00,0.00,VWS V15.00,2013-11-12 03:20:00,
2013-11-11 22:23:00,41.6,31.8,30.20,SE,142,0.0,10.0,68,0.00,,CLR,0.00,0.00,VWS V14.01,2013-11-12 03:23:00,
2013-11-11 22:25:00,40.2,32.2,30.18,SE,135,0.0,0.0,73,0.00,,CLR,0.00,0.00,VWS V15.00,2013-11-12 03:25:00,
2013-11-11 22:28:00,41.2,31.8,30.19,SE,142,0.0,10.0,69,0.00,,CLR,0.00,0.00,VWS V14.01,2013-11-12 03:28:00,
2013-11-11 22:30:00,40.1,32.2,30.17,SE,135,0.0,0.0,73,0.00,,CLR,0.00,0.00,VWS V15.00,2013-11-12 03:30:00,
2013-11-11 22:33:00,40.9,31.9,30.19,SE,142,0.0,10.0,70,0.00,,CLR,0.00,0.00,VWS V14.01,2013-11-12 03:33:00,
2013-11-11 22:35:00,39.9,32.3,30.17,SE,135,0.0,0.0,74,0.00,,CLR,0.00,0.00,VWS V15.00,2013-11-12 03:35:00,
2013-11-11 22:38:00,40.5,31.9,30.19,SE,142,0.0,10.0,71,0.00,,CLR,0.00,0.00,VWS V14.01,2013-11-12 03:38:00,
2013-11-11 22:40:00,39.8,32.2,30.17,SE,135,0.0,0.0,74,0.00,,CLR,0.00,0.00,VWS V15.00,2013-11-12 03:40:00,
2013-11-11 22:43:00,40.6,32.0,30.19,SE,142,0.0,10.0,71,0.00,,CLR,0.00,0.00,VWS V14.01,2013-11-12 03:43:00,
2013-11-11 22:45:00,39.9,32.0,30.17,SE,135,0.0,0.0,73,0.00,,CLR,0.00,0.00,VWS V15.00,2013-11-12 03:45:00,
2013-11-11 22:49:00,40.5,31.9,30.19,SE,142,0.0,10.0,71,0.00,,CLR,0.00,0.00,VWS V14.01,2013-11-12 03:49:00,
2013-11-11 22:50:00,39.8,31.9,30.17,SE,135,0.0,0.0,73,0.00,,CLR,0.00,0.00,VWS V15.00,2013-11-12 03:50:00,
2013-11-11 22:54:00,40.2,31.9,30.19,SE,142,0.0,10.0,72,0.00,,CLR,0.00,0.00,VWS V14.01,2013-11-12 03:54:00,
2013-11-11 22:55:00,39.8,31.9,30.17,SE,135,0.0,0.0,73,0.00,,CLR,0.00,0.00,VWS V15.00,2013-11-12 03:55:00,
2013-11-11 22:59:00,40.1,32.2,30.19,SE,142,0.0,10.0,73,0.00,,CLR,0.00,0.00,VWS V14.01,2013-11-12 03:59:00,
2013-11-11 23:00:00,39.7,32.1,30.16,SE,135,0.0,0.0,74,0.00,,CLR,0.00,0.00,VWS V15.00,2013-11-12 04:00:00,
2013-11-11 23:04:00,40.0,32.4,30.18,SE,142,0.0,10.0,74,0.00,,CLR,0.00,0.00,VWS V14.01,2013-11-12 04:04:00,
2013-11-11 23:05:00,39.6,32.0,30.16,SE,135,0.0,0.0,74,0.00,,CLR,0.00,0.00,VWS V15.00,2013-11-12 04:05:00,
2013-11-11 23:09:00,40.1,32.5,30.18,SE,142,0.0,10.0,74,0.00,,CLR,0.00,0.00,VWS V14.01,2013-11-12 04:09:00,
2013-11-11 23:10:00,39.6,32.0,30.16,SE,135,0.0,0.0,74,0.00,,CLR,0.00,0.00,VWS V15.00,2013-11-12 04:10:00,
2013-11-11 23:14:00,40.2,32.2,30.18,SE,142,0.0,10.0,73,0.00,,CLR,0.00,0.00,VWS V14.01,2013-11-12 04:14:00,
2013-11-11 23:15:00,39.7,32.4,30.16,SE,135,0.0,1.0,75,0.00,,CLR,0.00,0.00,VWS V15.00,2013-11-12 04:15:00,
2013-11-11 23:19:00,40.3,32.0,30.18,SE,142,0.0,10.0,72,0.00,,CLR,0.00,0.00,VWS V14.01,2013-11-12 04:19:00,
2013-11-11 23:20:00,39.8,32.5,30.16,SE,135,0.0,1.0,75,0.00,,CLR,0.00,0.00,VWS V15.00,2013-11-12 04:20:00,
2013-11-11 23:24:00,40.2,32.2,30.18,SE,142,0.0,10.0,73,0.00,,CLR,0.00,0.00,VWS V14.01,2013-11-12 04:24:00,
2013-11-11 23:25:00,40.1,32.5,30.16,SE,135,0.0,0.0,74,0.00,,CLR,0.00,0.00,VWS V15.00,2013-11-12 04:25:00,
2013-11-11 23:29:00,40.1,32.2,30.17,SE,142,0.0,10.0,73,0.00,,CLR,0.00,0.00,VWS V14.01,2013-11-12 04:29:00,
2013-11-11 23:30:00,40.2,32.2,30.16,SE,135,0.0,0.0,73,0.00,,CLR,0.00,0.00,VWS V15.00,2013-11-12 04:30:00,
2013-11-11 23:34:00,39.9,32.3,30.17,SE,142,0.0,10.0,74,0.00,,CLR,0.00,0.00,VWS V14.01,2013-11-12 04:34:00,
2013-11-11 23:35:00,40.0,32.4,30.16,SE,135,0.0,0.0,74,0.00,,CLR,0.00,0.00,VWS V15.00,2013-11-12 04:35:00,
2013-11-11 23:40:00,39.8,32.2,30.17,SE,142,0.0,10.0,74,0.00,,CLR,0.00,0.00,VWS V14.01,2013-11-12 04:40:00,
2013-11-11 23:45:00,39.9,32.0,30.17,SE,142,0.0,10.0,73,0.00,,CLR,0.00,0.00,VWS V14.01,2013-11-12 04:45:00,
2013-11-11 23:50:00,39.8,31.9,30.17,SE,142,0.0,10.0,73,0.00,,CLR,0.00,0.00,VWS V14.01,2013-11-12 04:50:00,
2013-11-11 23:55:00,39.8,31.9,30.17,SE,142,0.0,10.0,73,0.00,,CLR,0.00,0.00,VWS V14.01,2013-11-12 04:55:00,